CZ-2D DEB, 35273

Orbit data source: Space-Track

CZ-2D DEB, 35273 is space debris in SSO originally from a launch on Tue, 05 Jul 2005 UTC launched from the Jiuquan Satellite Launch Center, China (JSC). Debris objects in space refer to the collection of defunct objects orbiting the Earth. Examples of debris include non-operational satellites, rocket bodies, and fragments generated from explosions, collisions, or faulty payload assembly.

Not visible in the next 10 days
Identifier
35273, 2005-024M
Orbit
SSO
Country
Flag of CNCN / PRC
Related business
Manufacturer
Unknown
Mission
Spacecraft
Bus & Motor
Unknown
Mass
Unknown
Launch date (UTC)
2005-07-05 (20 years ago)
Launch vehicle
Unknown
Launch site
Jiuquan Satellite Launch Center, China (JSC)
Object type
Payload
Rocket body
Debris
Shape & HBR
Unknown shape, 0.1 m
Radar Cross Section
Small (<0.1 m²)

Expand to show TLE details & history
Last TLE update: 2 days ago

TLE from 2 days ago
0 CZ-2D DEB
1 35273U 05024M   25351.85171597  .00267343  30306-4  63721-3 0  9993
2 35273  97.1462  27.7282 0002228  53.7609 306.3874 15.96637047150109
Epoch: 2025-12-17T20:26Z
TLE epoch observation values (Epoch: 2025-12-17T20:26:28.259Z)
Latitude
-0.00002°
Longitude
-5.60518°
Altitude
286.077 km
Speed
7.736 km/s
True Right ascension
01h 50m 54s
True Declination
0° 00' 00"
Sunlit
Object was in full shadow at epoch
Visualization orbit readout
Latitude
Unknown
Longitude
Unknown
Altitude
Unknown
Speed
Unknown
Apparent Right ascension
Unknown
Apparent Declination
Unknown
Sunlit
N/A
Visualization observer readout
Local Sidereal Time
11:59:21
Azimuth
Unknown
Elevation
Unknown
Doppler factor
Unknown
Orbital elements
Apogee altitude
282.094 km
Perigee altitude
279.126 km
Semi-major axis
6,658.747 km
Eccentricity
0.00022
Inclination
97.1462°
RAAN
27.7282°
Arg. of periapsis
53.7609°
True anomaly
306.36684°
Mean anomaly
306.3874°
Eccentric anomaly
306.37712°
Mean motion
3.99443 °/min
Orbital period
90.13 mins
BSTAR
0.00063721
Loading maneuver chart data...
Computing Atmospheric mass density...
Loading historical data...
Loading historical data...
Loading historical data...
Loading historical data...
Loading historical data...
Loading historical data...
Loading historical data...

Documentation

Showing up to 5 results
|